Showing default

LIZZIESAT, 59132

Orbit data source: Space-Track

LIZZIESAT, 59132 is a payload satellite owned by Sidus Space (US) in SSO that was launched on Mon, 04 Mar 2024 UTC via an FALCON 9 launch vehicle from the Air Force Western Test Range (AFWTR). Payload-class satellites include a variety of spacecraft equipped with specific instruments for various scientific and technological missions. These include communications satellites like Starlink; space stations such as the ISS; scientific satellites like the Hubble; Earth observation satellites from companies like Planet Labs, Umbra, and HawkEye 360; GPS; miniature CubeSats for education and research; and military/defense satellites.

Loading next visibility...
Identifier
59132, 2024-043AL
Orbit
SSO
Country
Flag of USUS
Related business
Manufacturer
Sidus Space
Mission
Operational Commercial Technology
Bus & Motor
LIZZIESAT, Unknown motor
Mass
~100 kg wet, ~100 kg dry
Launch date (UTC)
2024-03-04 (3 years ago)
Launch vehicle
FALCON 9
Launch site
Air Force Western Test Range (AFWTR)
Object type
Payload
Rocket body
Debris
Shape & HBR
Oct Cyl + 8 Pan, 0.7 m
Radar Cross Section
1.008 m², Medium (>0.1 m² and < 1m²)

Expand to show TLE details & history
Last TLE update: 14 hours ago

TLE from 14 hours ago
0 LIZZIESAT
1 59132U 24043AL  26256.12699527  .00003038  00000-0  11394-3 0  9990
2 59132  97.5765  33.2587 0009233 299.8393  60.1928 15.28014904140363
Epoch: 2026-09-13T03:02Z
TLE epoch observation values (Epoch: 2026-09-13T03:02:52.391Z)
Latitude
0.00001°
Longitude
-4.58571°
Altitude
481.699 km
Speed
7.626 km/s
True Right ascension
02h 13m 02s
True Declination
0° 00' 00"
Sunlit
Object was in full shadow at epoch
Visualization orbit readout
Latitude
Unknown
Longitude
Unknown
Altitude
Unknown
Speed
Unknown
Apparent Right ascension
Unknown
Apparent Declination
Unknown
Sunlit
N/A
Visualization observer readout
Local Sidereal Time
10:02:25
Azimuth
Unknown
Elevation
Unknown
Doppler factor
Unknown
Orbital elements
Apogee altitude
485.041 km
Perigee altitude
472.379 km
Semi-major axis
6,856.847 km
Eccentricity
0.00092
Inclination
97.5765°
RAAN
33.2587°
Arg. of periapsis
299.8393°
True anomaly
60.28466°
Mean anomaly
60.1928°
Eccentric anomaly
60.23872°
Mean motion
3.82258 °/min
Orbital period
94.18 mins
BSTAR
0.00011394
Loading maneuver chart data...
Computing Atmospheric mass density...
Loading historical data...
Loading historical data...
Loading historical data...
Loading historical data...
Loading historical data...
Loading historical data...
Loading historical data...

Documentation

Showing up to 5 results
|